User: anonymous   Login
Location: Eferding
(48.3167°N, 14.0167°E)
Time: 13:36:06
(UTC+00:00)
Language:

TSX-5 - Orbit

View from above orbital plane
View from above orbital plane
View from above satellite
View from above satellite

Ground track
Ground track

The orbit data is extracted from the following two-line orbital elements,

1 26374U 00030A   20021.68062974  .00000928  00000-0  82813-4 0  9997
2 26374  68.9293 129.8653 0645388 274.9006  77.8759 14.07506107989478
Epoch (UTC): 21 January 2020 16:20:06
Eccentricity: 0.0645388
inclination: 68.9293°
perigee height: 400 km
apogee height: 1335 km
right ascension of ascending node: 129.8653°
argument of perigee: 274.9006°
revolutions per day: 14.07506107
mean anomaly at epoch: 77.8759°
orbit number at epoch: 98947

The dashed part of the orbit path shows where the satellite is in the earth's shadow,  

DLR